User: anonymous   Login
Location: Unspecified
(0.0000°N, 0.0000°E)
Time: 17:27:09
(UTC+00:00)
Language:

USA 247 - Orbit

View from above orbital plane
View from above orbital plane
View from above satellite
View from above satellite

Ground track
Ground track

The orbit data is extracted from the following two-line orbital elements,

1 39462U 13072A   17021.82267947 0.00000000  00000-0  00000-0 0    06
2 39462 122.9997 171.1464 0006000 152.6960 207.3040 13.41415031    03
Epoch (UTC): 21 January 2017 19:44:39
Eccentricity: 0.0006000
inclination: 122.9997°
perigee height: 1099 km
apogee height: 1108 km
right ascension of ascending node: 171.1464°
argument of perigee: 152.6960°
revolutions per day: 13.41415031
mean anomaly at epoch: 207.3040°
orbit number at epoch: 0

The dashed part of the orbit path shows where the satellite is in the earth's shadow,  

DLR